Time,TemperatureF,DewpointF,PressureIn,WindDirection,WindDirectionDegrees,WindSpeedMPH,WindSpeedGustMPH,Humidity,HourlyPrecipIn,Conditions,Clouds,dailyrainin,SoftwareType,DateUTC
2013-07-02 00:01:00,70.8,54.5,30.10,NNE,28,0.0,0.0,56,0.00,,,0.00,WUHU216DAVISVP2,2013-07-02 05:01:00,
2013-07-02 00:06:00,70.6,54.3,30.10,NNE,28,0.0,0.0,56,0.00,,,0.00,WUHU216DAVISVP2,2013-07-02 05:06:00,
2013-07-02 00:11:00,70.4,54.1,30.10,NNE,28,0.0,0.0,56,0.00,,,0.00,WUHU216DAVISVP2,2013-07-02 05:11:00,
2013-07-02 00:16:00,70.2,54.4,30.10,NNE,28,0.0,0.0,57,0.00,,,0.00,WUHU216DAVISVP2,2013-07-02 05:16:00,
2013-07-02 00:21:00,70.1,54.3,30.10,NNE,28,0.0,0.0,57,0.00,,,0.00,WUHU216DAVISVP2,2013-07-02 05:21:00,
2013-07-02 00:26:00,69.9,54.6,30.10,NNE,28,0.0,0.0,58,0.00,,,0.00,WUHU216DAVISVP2,2013-07-02 05:26:00,
2013-07-02 00:31:00,69.7,54.4,30.10,NNE,28,0.0,0.0,58,0.00,,,0.00,WUHU216DAVISVP2,2013-07-02 05:31:00,
2013-07-02 00:36:00,69.5,54.7,30.10,NNE,28,0.0,0.0,59,0.00,,,0.00,WUHU216DAVISVP2,2013-07-02 05:36:00,
2013-07-02 00:41:00,69.3,54.5,30.10,NNE,28,0.0,0.0,59,0.00,,,0.00,WUHU216DAVISVP2,2013-07-02 05:41:00,
2013-07-02 00:46:00,69.1,54.8,30.10,NNE,28,0.0,0.0,60,0.00,,,0.00,WUHU216DAVISVP2,2013-07-02 05:46:00,
2013-07-02 00:51:00,68.9,54.6,30.10,NNE,28,0.0,0.0,60,0.00,,,0.00,WUHU216DAVISVP2,2013-07-02 05:51:00,
2013-07-02 00:56:00,68.8,54.5,30.10,NNE,28,0.0,0.0,60,0.00,,,0.00,WUHU216DAVISVP2,2013-07-02 05:56:00,
2013-07-02 01:01:00,68.6,54.3,30.10,NNE,28,0.0,0.0,60,0.00,,,0.00,WUHU216DAVISVP2,2013-07-02 06:01:00,
2013-07-02 01:06:00,68.5,54.2,30.10,NNE,28,0.0,0.0,60,0.00,,,0.00,WUHU216DAVISVP2,2013-07-02 06:06:00,
2013-07-02 01:11:00,68.4,54.1,30.10,NNE,28,0.0,0.0,60,0.00,,,0.00,WUHU216DAVISVP2,2013-07-02 06:11:00,
2013-07-02 01:16:00,68.3,54.0,30.10,NNE,28,0.0,0.0,60,0.00,,,0.00,WUHU216DAVISVP2,2013-07-02 06:16:00,
2013-07-02 01:21:00,68.2,54.4,30.10,NNE,28,0.0,0.0,61,0.00,,,0.00,WUHU216DAVISVP2,2013-07-02 06:21:00,
2013-07-02 01:26:00,68.0,54.2,30.10,NNE,28,0.0,0.0,61,0.00,,,0.00,WUHU216DAVISVP2,2013-07-02 06:26:00,
2013-07-02 01:31:00,67.9,54.6,30.10,NNE,28,0.0,0.0,62,0.00,,,0.00,WUHU216DAVISVP2,2013-07-02 06:31:00,
2013-07-02 01:36:00,67.6,54.3,30.10,NNE,28,0.0,0.0,62,0.00,,,0.00,WUHU216DAVISVP2,2013-07-02 06:36:00,
2013-07-02 01:41:00,67.4,54.5,30.10,NNE,28,0.0,0.0,63,0.00,,,0.00,WUHU216DAVISVP2,2013-07-02 06:41:00,
2013-07-02 01:46:00,67.1,54.7,30.10,NNE,28,0.0,0.0,64,0.00,,,0.00,WUHU216DAVISVP2,2013-07-02 06:46:00,
2013-07-02 01:51:00,66.9,54.9,30.10,NNE,28,0.0,0.0,65,0.00,,,0.00,WUHU216DAVISVP2,2013-07-02 06:51:00,
2013-07-02 01:56:00,66.8,54.8,30.10,NNE,28,0.0,0.0,65,0.00,,,0.00,WUHU216DAVISVP2,2013-07-02 06:56:00,
2013-07-02 02:01:00,66.6,55.1,30.10,NNE,28,0.0,0.0,66,0.00,,,0.00,WUHU216DAVISVP2,2013-07-02 07:01:00,
2013-07-02 02:06:00,66.5,55.4,30.10,NNE,28,0.0,0.0,67,0.00,,,0.00,WUHU216DAVISVP2,2013-07-02 07:06:00,
2013-07-02 02:11:00,66.4,55.3,30.10,NNE,28,0.0,0.0,67,0.00,,,0.00,WUHU216DAVISVP2,2013-07-02 07:11:00,
2013-07-02 02:16:00,66.3,55.2,30.10,NNE,28,0.0,0.0,67,0.00,,,0.00,WUHU216DAVISVP2,2013-07-02 07:16:00,
2013-07-02 02:21:00,66.2,55.1,30.10,NNE,28,0.0,0.0,67,0.00,,,0.00,WUHU216DAVISVP2,2013-07-02 07:21:00,
2013-07-02 02:26:00,66.1,55.8,30.10,NNE,28,0.0,0.0,69,0.00,,,0.00,WUHU216DAVISVP2,2013-07-02 07:26:00,
2013-07-02 02:31:00,66.2,55.9,30.10,NNE,28,0.0,0.0,69,0.00,,,0.00,WUHU216DAVISVP2,2013-07-02 07:31:00,
2013-07-02 02:36:00,66.1,55.0,30.09,NNE,28,0.0,0.0,67,0.00,,,0.00,WUHU216DAVISVP2,2013-07-02 07:36:00,
2013-07-02 02:41:00,66.1,55.0,30.09,NNE,28,0.0,0.0,67,0.00,,,0.00,WUHU216DAVISVP2,2013-07-02 07:41:00,
2013-07-02 02:46:00,66.1,55.0,30.09,NNE,28,0.0,0.0,67,0.00,,,0.00,WUHU216DAVISVP2,2013-07-02 07:46:00,
2013-07-02 02:51:00,66.1,55.0,30.10,NNE,28,0.0,0.0,67,0.00,,,0.00,WUHU216DAVISVP2,2013-07-02 07:51:00,
2013-07-02 02:56:00,66.3,54.8,30.09,NNE,28,0.0,0.0,66,0.00,,,0.00,WUHU216DAVISVP2,2013-07-02 07:56:00,
2013-07-02 03:01:00,66.4,54.9,30.10,NNE,28,0.0,0.0,66,0.00,,,0.00,WUHU216DAVISVP2,2013-07-02 08:01:00,
2013-07-02 03:06:00,66.4,54.9,30.09,NNE,28,0.0,0.0,66,0.00,,,0.00,WUHU216DAVISVP2,2013-07-02 08:06:00,
2013-07-02 03:11:00,66.3,54.8,30.09,NNE,28,0.0,0.0,66,0.00,,,0.00,WUHU216DAVISVP2,2013-07-02 08:11:00,
2013-07-02 03:16:00,66.1,55.0,30.09,NNE,28,0.0,0.0,67,0.00,,,0.00,WUHU216DAVISVP2,2013-07-02 08:16:00,
2013-07-02 03:21:00,65.9,54.4,30.09,NNE,28,0.0,0.0,66,0.00,,,0.00,WUHU216DAVISVP2,2013-07-02 08:21:00,
2013-07-02 03:26:00,65.7,54.2,30.09,NNE,28,0.0,0.0,66,0.00,,,0.00,WUHU216DAVISVP2,2013-07-02 08:26:00,
2013-07-02 03:31:00,65.6,54.1,30.09,NNE,28,0.0,0.0,66,0.00,,,0.00,WUHU216DAVISVP2,2013-07-02 08:31:00,
2013-07-02 03:36:00,65.5,54.0,30.09,NNE,28,0.0,0.0,66,0.00,,,0.00,WUHU216DAVISVP2,2013-07-02 08:36:00,
2013-07-02 03:41:00,65.5,54.4,30.09,NNE,28,0.0,0.0,67,0.00,,,0.00,WUHU216DAVISVP2,2013-07-02 08:41:00,
2013-07-02 03:46:00,65.5,54.4,30.09,NNE,28,0.0,0.0,67,0.00,,,0.00,WUHU216DAVISVP2,2013-07-02 08:46:00,
2013-07-02 03:51:00,65.4,53.9,30.09,NNE,28,0.0,0.0,66,0.00,,,0.00,WUHU216DAVISVP2,2013-07-02 08:51:00,
2013-07-02 03:56:00,65.4,53.9,30.09,NNE,28,0.0,0.0,66,0.00,,,0.00,WUHU216DAVISVP2,2013-07-02 08:56:00,
2013-07-02 04:01:00,65.4,54.3,30.09,NNE,28,0.0,0.0,67,0.00,,,0.00,WUHU216DAVISVP2,2013-07-02 09:01:00,
2013-07-02 04:06:00,65.3,54.2,30.09,NNE,28,0.0,0.0,67,0.00,,,0.00,WUHU216DAVISVP2,2013-07-02 09:06:00,
2013-07-02 04:11:00,65.3,54.2,30.09,NNE,28,0.0,0.0,67,0.00,,,0.00,WUHU216DAVISVP2,2013-07-02 09:11:00,
2013-07-02 04:16:00,65.2,53.7,30.09,NNE,28,0.0,0.0,66,0.00,,,0.00,WUHU216DAVISVP2,2013-07-02 09:16:00,
2013-07-02 04:21:00,65.0,53.5,30.09,NNE,28,0.0,0.0,66,0.00,,,0.00,WUHU216DAVISVP2,2013-07-02 09:21:00,
2013-07-02 04:26:00,65.0,53.9,30.09,NNE,28,0.0,0.0,67,0.00,,,0.00,WUHU216DAVISVP2,2013-07-02 09:26:00,
2013-07-02 04:31:00,64.9,53.8,30.09,NNE,28,0.0,0.0,67,0.00,,,0.00,WUHU216DAVISVP2,2013-07-02 09:31:00,
2013-07-02 04:36:00,64.8,54.2,30.09,NNE,28,0.0,0.0,68,0.00,,,0.00,WUHU216DAVISVP2,2013-07-02 09:36:00,
2013-07-02 04:41:00,64.8,54.2,30.09,NNE,28,0.0,0.0,68,0.00,,,0.00,WUHU216DAVISVP2,2013-07-02 09:41:00,
2013-07-02 04:46:00,64.8,54.2,30.09,NNE,28,0.0,0.0,68,0.00,,,0.00,WUHU216DAVISVP2,2013-07-02 09:46:00,
2013-07-02 04:51:00,64.9,54.2,30.09,NNE,28,0.0,0.0,68,0.00,,,0.00,WUHU216DAVISVP2,2013-07-02 09:51:00,
2013-07-02 04:56:00,65.1,54.8,30.09,NNE,28,0.0,0.0,69,0.00,,,0.00,WUHU216DAVISVP2,2013-07-02 09:56:00,
2013-07-02 05:01:00,65.2,54.9,30.09,NNE,28,0.0,0.0,69,0.00,,,0.00,WUHU216DAVISVP2,2013-07-02 10:01:00,
2013-07-02 05:06:00,65.3,55.4,30.09,NNE,28,0.0,0.0,70,0.00,,,0.00,WUHU216DAVISVP2,2013-07-02 10:06:00,
2013-07-02 05:11:00,65.2,55.3,30.09,NNE,28,0.0,0.0,70,0.00,,,0.00,WUHU216DAVISVP2,2013-07-02 10:11:00,
2013-07-02 05:16:00,65.1,55.2,30.09,NNE,28,0.0,0.0,70,0.00,,,0.00,WUHU216DAVISVP2,2013-07-02 10:16:00,
2013-07-02 05:21:00,65.0,55.5,30.09,NNE,28,0.0,0.0,71,0.00,,,0.00,WUHU216DAVISVP2,2013-07-02 10:21:00,
2013-07-02 05:26:00,65.0,55.9,30.09,NNE,28,0.0,0.0,72,0.00,,,0.00,WUHU216DAVISVP2,2013-07-02 10:26:00,
2013-07-02 05:31:00,65.0,56.3,30.09,NNE,28,0.0,0.0,73,0.00,,,0.00,WUHU216DAVISVP2,2013-07-02 10:31:00,
2013-07-02 05:36:00,65.1,56.4,30.09,NNE,28,0.0,0.0,73,0.00,,,0.00,WUHU216DAVISVP2,2013-07-02 10:36:00,
2013-07-02 05:41:00,65.2,56.1,30.09,NNE,28,0.0,0.0,72,0.00,,,0.00,WUHU216DAVISVP2,2013-07-02 10:41:00,
2013-07-02 05:46:00,65.2,56.1,30.09,NNE,28,0.0,0.0,72,0.00,,,0.00,WUHU216DAVISVP2,2013-07-02 10:46:00,
2013-07-02 05:51:00,65.3,56.2,30.10,NNE,28,0.0,0.0,72,0.00,,,0.00,WUHU216DAVISVP2,2013-07-02 10:51:00,
2013-07-02 05:56:00,65.3,55.8,30.10,NNE,28,0.0,0.0,71,0.00,,,0.00,WUHU216DAVISVP2,2013-07-02 10:56:00,
2013-07-02 06:01:00,65.4,55.9,30.10,NNE,28,0.0,0.0,71,0.00,,,0.00,WUHU216DAVISVP2,2013-07-02 11:01:00,
2013-07-02 06:06:00,65.5,56.0,30.10,NNE,28,0.0,0.0,71,0.00,,,0.00,WUHU216DAVISVP2,2013-07-02 11:06:00,
2013-07-02 06:11:00,65.5,55.6,30.10,NNE,28,0.0,0.0,70,0.00,,,0.00,WUHU216DAVISVP2,2013-07-02 11:11:00,
2013-07-02 06:16:00,65.4,55.9,30.10,NNE,28,0.0,0.0,71,0.00,,,0.00,WUHU216DAVISVP2,2013-07-02 11:16:00,
2013-07-02 06:21:00,65.3,55.4,30.10,NNE,28,0.0,0.0,70,0.00,,,0.00,WUHU216DAVISVP2,2013-07-02 11:21:00,
2013-07-02 06:26:00,65.2,55.7,30.10,NNE,28,0.0,0.0,71,0.00,,,0.00,WUHU216DAVISVP2,2013-07-02 11:26:00,
2013-07-02 06:31:00,65.2,55.7,30.10,NNE,28,0.0,0.0,71,0.00,,,0.00,WUHU216DAVISVP2,2013-07-02 11:31:00,
2013-07-02 06:36:00,65.1,55.6,30.09,NNE,28,0.0,0.0,71,0.00,,,0.00,WUHU216DAVISVP2,2013-07-02 11:36:00,
2013-07-02 06:41:00,65.1,56.0,30.09,NNE,28,0.0,0.0,72,0.00,,,0.00,WUHU216DAVISVP2,2013-07-02 11:41:00,
2013-07-02 06:46:00,65.1,56.0,30.09,NNE,28,0.0,0.0,72,0.00,,,0.00,WUHU216DAVISVP2,2013-07-02 11:46:00,
2013-07-02 06:51:00,65.2,56.1,30.10,NNE,28,0.0,0.0,72,0.00,,,0.00,WUHU216DAVISVP2,2013-07-02 11:51:00,
2013-07-02 06:56:00,65.4,56.3,30.10,NNE,28,0.0,0.0,72,0.00,,,0.00,WUHU216DAVISVP2,2013-07-02 11:56:00,
2013-07-02 07:01:00,65.5,56.4,30.10,NNE,28,0.0,0.0,72,0.00,,,0.00,WUHU216DAVISVP2,2013-07-02 12:01:00,
2013-07-02 07:06:00,65.7,56.6,30.10,NNE,28,0.0,0.0,72,0.00,,,0.00,WUHU216DAVISVP2,2013-07-02 12:06:00,
2013-07-02 07:11:00,65.9,56.8,30.10,NNE,28,0.0,0.0,72,0.00,,,0.00,WUHU216DAVISVP2,2013-07-02 12:11:00,
2013-07-02 07:16:00,66.1,56.6,30.10,NNE,28,0.0,0.0,71,0.00,,,0.00,WUHU216DAVISVP2,2013-07-02 12:16:00,
2013-07-02 07:21:00,66.3,56.4,30.10,NNE,28,0.0,0.0,70,0.00,,,0.00,WUHU216DAVISVP2,2013-07-02 12:21:00,
2013-07-02 07:26:00,66.6,56.7,30.10,NNE,28,0.0,0.0,70,0.00,,,0.00,WUHU216DAVISVP2,2013-07-02 12:26:00,
2013-07-02 07:31:00,67.1,57.2,30.10,NNE,28,0.0,0.0,70,0.00,,,0.00,WUHU216DAVISVP2,2013-07-02 12:31:00,
2013-07-02 07:36:00,67.5,57.5,30.10,NNE,28,0.0,0.0,70,0.00,,,0.00,WUHU216DAVISVP2,2013-07-02 12:36:00,
2013-07-02 07:41:00,67.8,57.4,30.10,NNE,28,0.0,1.0,69,0.00,,,0.00,WUHU216DAVISVP2,2013-07-02 12:41:00,
2013-07-02 07:46:00,68.0,57.2,30.10,NNE,28,0.0,1.0,68,0.00,,,0.00,WUHU216DAVISVP2,2013-07-02 12:46:00,
2013-07-02 07:51:00,68.3,57.5,30.10,NNE,28,0.0,0.0,68,0.00,,,0.00,WUHU216DAVISVP2,2013-07-02 12:51:00,
2013-07-02 07:56:00,68.6,57.8,30.10,NNE,28,0.0,0.0,68,0.00,,,0.00,WUHU216DAVISVP2,2013-07-02 12:56:00,
2013-07-02 08:01:00,68.9,57.3,30.10,NNE,28,0.0,0.0,66,0.00,,,0.00,WUHU216DAVISVP2,2013-07-02 13:01:00,
2013-07-02 08:06:00,69.4,57.3,30.10,NNE,28,0.0,0.0,65,0.00,,,0.00,WUHU216DAVISVP2,2013-07-02 13:06:00,
2013-07-02 08:11:00,69.9,57.4,30.10,NNE,28,0.0,2.0,64,0.00,,,0.00,WUHU216DAVISVP2,2013-07-02 13:11:00,
2013-07-02 08:16:00,70.7,57.7,30.10,NNE,28,0.0,2.0,63,0.00,,,0.00,WUHU216DAVISVP2,2013-07-02 13:16:00,
2013-07-02 08:21:00,71.4,57.0,30.10,NNE,28,0.0,2.0,60,0.00,,,0.00,WUHU216DAVISVP2,2013-07-02 13:21:00,
2013-07-02 08:26:00,72.1,56.7,30.10,NNE,28,0.0,2.0,58,0.00,,,0.00,WUHU216DAVISVP2,2013-07-02 13:26:00,
2013-07-02 08:31:00,72.9,56.9,30.09,NNE,28,0.0,1.0,57,0.00,,,0.00,WUHU216DAVISVP2,2013-07-02 13:31:00,
2013-07-02 08:36:00,73.7,57.2,30.09,NNE,28,0.0,1.0,56,0.00,,,0.00,WUHU216DAVISVP2,2013-07-02 13:36:00,
2013-07-02 08:41:00,74.5,57.4,30.09,NNE,28,0.0,3.0,55,0.00,,,0.00,WUHU216DAVISVP2,2013-07-02 13:41:00,
2013-07-02 08:46:00,75.4,57.7,30.09,NNE,28,0.0,3.0,54,0.00,,,0.00,WUHU216DAVISVP2,2013-07-02 13:46:00,
2013-07-02 08:51:00,76.0,57.8,30.09,NNE,28,0.0,3.0,53,0.00,,,0.00,WUHU216DAVISVP2,2013-07-02 13:51:00,
2013-07-02 08:56:00,76.6,57.8,30.09,NNE,28,0.0,3.0,52,0.00,,,0.00,WUHU216DAVISVP2,2013-07-02 13:56:00,
2013-07-02 09:01:00,77.3,57.9,30.09,NNE,28,0.0,1.0,51,0.00,,,0.00,WUHU216DAVISVP2,2013-07-02 14:01:00,
2013-07-02 09:06:00,77.9,57.9,30.09,NNE,28,0.0,0.0,50,0.00,,,0.00,WUHU216DAVISVP2,2013-07-02 14:06:00,
2013-07-02 09:11:00,78.7,58.0,30.09,NNE,28,0.0,0.0,49,0.00,,,0.00,WUHU216DAVISVP2,2013-07-02 14:11:00,
2013-07-02 09:16:00,78.7,57.4,30.09,NNE,28,0.0,0.0,48,0.00,,,0.00,WUHU216DAVISVP2,2013-07-02 14:16:00,
2013-07-02 09:21:00,79.2,57.9,30.09,NNE,28,0.0,0.0,48,0.00,,,0.00,WUHU216DAVISVP2,2013-07-02 14:21:00,
2013-07-02 09:26:00,79.2,56.7,30.09,NNE,28,0.0,0.0,46,0.00,,,0.00,WUHU216DAVISVP2,2013-07-02 14:26:00,
2013-07-02 09:31:00,79.4,56.9,30.09,NNE,28,0.0,0.0,46,0.00,,,0.00,WUHU216DAVISVP2,2013-07-02 14:31:00,
2013-07-02 09:36:00,79.4,56.9,30.09,NNE,28,0.0,0.0,46,0.00,,,0.00,WUHU216DAVISVP2,2013-07-02 14:36:00,
2013-07-02 09:41:00,79.0,57.7,30.09,NNE,28,0.0,0.0,48,0.00,,,0.00,WUHU216DAVISVP2,2013-07-02 14:41:00,
2013-07-02 09:46:00,79.8,58.4,30.09,NNE,28,0.0,0.0,48,0.00,,,0.00,WUHU216DAVISVP2,2013-07-02 14:46:00,
2013-07-02 09:51:00,80.2,57.6,30.09,NNE,28,0.0,0.0,46,0.00,,,0.00,WUHU216DAVISVP2,2013-07-02 14:51:00,
2013-07-02 09:56:00,80.9,56.9,30.09,NNE,28,0.0,0.0,44,0.00,,,0.00,WUHU216DAVISVP2,2013-07-02 14:56:00,
2013-07-02 10:01:00,80.7,56.1,30.09,NNE,28,0.0,0.0,43,0.00,,,0.00,WUHU216DAVISVP2,2013-07-02 15:01:00,
2013-07-02 10:06:00,80.8,60.0,30.09,NNE,28,0.0,0.0,49,0.00,,,0.00,WUHU216DAVISVP2,2013-07-02 15:06:00,
2013-07-02 10:11:00,81.7,57.7,30.09,NNE,28,0.0,1.0,44,0.00,,,0.00,WUHU216DAVISVP2,2013-07-02 15:11:00,
2013-07-02 10:16:00,82.7,57.9,30.08,NNE,28,0.0,1.0,43,0.00,,,0.00,WUHU216DAVISVP2,2013-07-02 15:16:00,
2013-07-02 10:21:00,83.1,56.9,30.08,NNE,28,0.0,1.0,41,0.00,,,0.00,WUHU216DAVISVP2,2013-07-02 15:21:00,
2013-07-02 10:26:00,82.8,58.0,30.08,NNE,28,0.0,0.0,43,0.00,,,0.00,WUHU216DAVISVP2,2013-07-02 15:26:00,
2013-07-02 10:32:00,82.5,56.4,30.08,NNE,28,0.0,0.0,41,0.00,,,0.00,WUHU216DAVISVP2,2013-07-02 15:32:00,
2013-07-02 10:37:00,82.1,55.3,30.08,NNE,28,0.0,0.0,40,0.00,,,0.00,WUHU216DAVISVP2,2013-07-02 15:37:00,
2013-07-02 10:42:00,82.6,56.5,30.08,NNE,28,0.0,0.0,41,0.00,,,0.00,WUHU216DAVISVP2,2013-07-02 15:42:00,
2013-07-02 10:47:00,83.3,57.1,30.08,NNE,28,0.0,1.0,41,0.00,,,0.00,WUHU216DAVISVP2,2013-07-02 15:47:00,
2013-07-02 10:51:00,84.2,56.5,30.08,NNE,28,0.0,1.0,39,0.00,,,0.00,WUHU216DAVISVP2,2013-07-02 15:51:00,
2013-07-02 10:56:00,84.6,56.1,30.08,NNE,15,0.0,2.0,38,0.00,,,0.00,WUHU216DAVISVP2,2013-07-02 15:56:00,
2013-07-02 11:01:00,83.5,55.1,30.08,NNE,15,0.0,2.0,38,0.00,,,0.00,WUHU216DAVISVP2,2013-07-02 16:01:00,
2013-07-02 11:06:00,83.3,52.7,30.08,NNE,15,0.0,1.0,35,0.00,,,0.00,WUHU216DAVISVP2,2013-07-02 16:06:00,
2013-07-02 11:12:00,84.2,54.2,30.07,NNE,17,0.0,2.0,36,0.00,,,0.00,WUHU216DAVISVP2,2013-07-02 16:12:00,
2013-07-02 11:16:00,84.1,53.4,30.07,NNE,17,0.0,2.0,35,0.00,,,0.00,WUHU216DAVISVP2,2013-07-02 16:16:00,
2013-07-02 11:22:00,84.0,55.6,30.08,NNE,17,0.0,2.0,38,0.00,,,0.00,WUHU216DAVISVP2,2013-07-02 16:22:00,
2013-07-02 11:27:00,84.2,54.2,30.07,NNE,17,0.0,1.0,36,0.00,,,0.00,WUHU216DAVISVP2,2013-07-02 16:27:00,
2013-07-02 11:32:00,84.8,54.0,30.07,NNE,17,0.0,0.0,35,0.00,,,0.00,WUHU216DAVISVP2,2013-07-02 16:32:00,
2013-07-02 11:36:00,85.2,52.7,30.07,NNE,17,0.0,0.0,33,0.00,,,0.00,WUHU216DAVISVP2,2013-07-02 16:36:00,
2013-07-02 11:42:00,85.0,55.0,30.07,NNE,17,0.0,0.0,36,0.00,,,0.00,WUHU216DAVISVP2,2013-07-02 16:42:00,
2013-07-02 11:46:00,84.4,50.3,30.08,NNE,17,0.0,1.0,31,0.00,,,0.00,WUHU216DAVISVP2,2013-07-02 16:46:00,
2013-07-02 11:52:00,84.6,53.0,30.07,NNE,17,0.0,1.0,34,0.00,,,0.00,WUHU216DAVISVP2,2013-07-02 16:52:00,
2013-07-02 11:57:00,85.4,53.7,30.07,NNE,17,0.0,0.0,34,0.00,,,0.00,WUHU216DAVISVP2,2013-07-02 16:57:00,
2013-07-02 12:02:00,85.7,55.6,30.07,NNE,17,0.0,0.0,36,0.00,,,0.00,WUHU216DAVISVP2,2013-07-02 17:02:00,
2013-07-02 12:06:00,85.7,52.3,30.07,North,351,1.0,2.0,32,0.00,,,0.00,WUHU216DAVISVP2,2013-07-02 17:06:00,
2013-07-02 12:11:00,86.5,53.0,30.07,NNW,344,2.0,2.0,32,0.00,,,0.00,WUHU216DAVISVP2,2013-07-02 17:11:00,
2013-07-02 12:16:00,87.1,53.5,30.07,NNW,334,0.0,3.0,32,0.00,,,0.00,WUHU216DAVISVP2,2013-07-02 17:16:00,
2013-07-02 12:21:00,87.2,52.8,30.07,NNW,335,0.0,3.0,31,0.00,,,0.00,WUHU216DAVISVP2,2013-07-02 17:21:00,
2013-07-02 12:26:00,87.7,52.3,30.07,NNW,335,0.0,2.0,30,0.00,,,0.00,WUHU216DAVISVP2,2013-07-02 17:26:00,
2013-07-02 12:31:00,88.5,53.0,30.07,NNW,331,0.0,3.0,30,0.00,,,0.00,WUHU216DAVISVP2,2013-07-02 17:31:00,
2013-07-02 12:36:00,87.7,52.3,30.07,NW,322,0.0,5.0,30,0.00,,,0.00,WUHU216DAVISVP2,2013-07-02 17:36:00,
2013-07-02 12:41:00,85.7,53.2,30.06,NW,323,0.0,5.0,33,0.00,,,0.00,WUHU216DAVISVP2,2013-07-02 17:41:00,
2013-07-02 12:46:00,85.0,52.5,30.06,NW,326,0.0,1.0,33,0.00,,,0.00,WUHU216DAVISVP2,2013-07-02 17:46:00,
2013-07-02 12:51:00,85.4,52.1,30.06,NW,325,0.0,2.0,32,0.00,,,0.00,WUHU216DAVISVP2,2013-07-02 17:51:00,
2013-07-02 12:56:00,85.3,52.0,30.06,NW,325,0.0,2.0,32,0.00,,,0.00,WUHU216DAVISVP2,2013-07-02 17:56:00,
2013-07-02 13:02:00,86.1,51.8,30.06,NW,325,0.0,1.0,31,0.00,,,0.00,WUHU216DAVISVP2,2013-07-02 18:02:00,
2013-07-02 13:07:00,86.8,52.4,30.06,NW,325,0.0,1.0,31,0.00,,,0.00,WUHU216DAVISVP2,2013-07-02 18:07:00,
2013-07-02 13:12:00,87.1,53.5,30.06,NW,325,0.0,1.0,32,0.00,,,0.00,WUHU216DAVISVP2,2013-07-02 18:12:00,
2013-07-02 13:17:00,86.5,52.2,30.06,NW,325,0.0,1.0,31,0.00,,,0.00,WUHU216DAVISVP2,2013-07-02 18:17:00,
2013-07-02 13:22:00,86.5,51.3,30.06,NW,323,0.0,4.0,30,0.00,,,0.00,WUHU216DAVISVP2,2013-07-02 18:22:00,
2013-07-02 13:26:00,87.1,50.9,30.06,NW,323,0.0,4.0,29,0.00,,,0.00,WUHU216DAVISVP2,2013-07-02 18:26:00,
2013-07-02 13:32:00,87.6,51.3,30.06,NW,323,0.0,2.0,29,0.00,,,0.00,WUHU216DAVISVP2,2013-07-02 18:32:00,
2013-07-02 13:37:00,87.6,51.3,30.05,NW,323,0.0,2.0,29,0.00,,,0.00,WUHU216DAVISVP2,2013-07-02 18:37:00,
2013-07-02 13:42:00,87.0,51.7,30.05,NW,323,0.0,2.0,30,0.00,,,0.00,WUHU216DAVISVP2,2013-07-02 18:42:00,
2013-07-02 13:47:00,87.4,53.8,30.05,NW,323,1.0,2.0,32,0.00,,,0.00,WUHU216DAVISVP2,2013-07-02 18:47:00,
2013-07-02 13:52:00,87.0,53.5,30.05,NW,325,0.0,4.0,32,0.00,,,0.00,WUHU216DAVISVP2,2013-07-02 18:52:00,
2013-07-02 13:57:00,87.3,52.0,30.05,WNW,290,0.0,4.0,30,0.00,,,0.00,WUHU216DAVISVP2,2013-07-02 18:57:00,
2013-07-02 14:02:00,87.7,54.1,30.05,WNW,292,0.0,4.0,32,0.00,,,0.00,WUHU216DAVISVP2,2013-07-02 19:02:00,
2013-07-02 14:07:00,88.1,53.5,30.05,WNW,293,0.0,2.0,31,0.00,,,0.00,WUHU216DAVISVP2,2013-07-02 19:07:00,
2013-07-02 14:12:00,87.7,52.3,30.05,WNW,293,1.0,1.0,30,0.00,,,0.00,WUHU216DAVISVP2,2013-07-02 19:12:00,
2013-07-02 14:17:00,86.8,54.1,30.05,NW,314,0.0,4.0,33,0.00,,,0.00,WUHU216DAVISVP2,2013-07-02 19:17:00,
2013-07-02 14:22:00,86.0,53.4,30.05,NW,313,0.0,4.0,33,0.00,,,0.00,WUHU216DAVISVP2,2013-07-02 19:22:00,
2013-07-02 14:27:00,85.9,54.2,30.05,NW,313,0.0,1.0,34,0.00,,,0.00,WUHU216DAVISVP2,2013-07-02 19:27:00,
2013-07-02 14:32:00,87.1,55.2,30.04,WNW,303,1.0,4.0,34,0.00,,,0.00,WUHU216DAVISVP2,2013-07-02 19:32:00,
2013-07-02 14:37:00,87.0,52.6,30.04,WNW,303,0.0,4.0,31,0.00,,,0.00,WUHU216DAVISVP2,2013-07-02 19:37:00,
2013-07-02 14:42:00,87.4,52.9,30.04,WNW,303,0.0,2.0,31,0.00,,,0.00,WUHU216DAVISVP2,2013-07-02 19:42:00,
2013-07-02 14:47:00,88.4,52.9,30.04,WNW,286,1.0,3.0,30,0.00,,,0.00,WUHU216DAVISVP2,2013-07-02 19:47:00,
2013-07-02 14:52:00,87.8,53.3,30.04,WNW,287,0.0,3.0,31,0.00,,,0.00,WUHU216DAVISVP2,2013-07-02 19:52:00,
2013-07-02 14:57:00,87.2,52.8,30.04,WNW,288,0.0,3.0,31,0.00,,,0.00,WUHU216DAVISVP2,2013-07-02 19:57:00,
2013-07-02 15:02:00,86.8,53.3,30.04,WNW,289,0.0,2.0,32,0.00,,,0.00,WUHU216DAVISVP2,2013-07-02 20:02:00,
2013-07-02 15:07:00,87.2,52.8,30.04,WNW,289,0.0,2.0,31,0.00,,,0.00,WUHU216DAVISVP2,2013-07-02 20:07:00,
2013-07-02 15:12:00,87.5,53.0,30.04,WNW,289,0.0,1.0,31,0.00,,,0.00,WUHU216DAVISVP2,2013-07-02 20:12:00,
2013-07-02 15:17:00,86.9,53.4,30.03,WNW,296,0.0,2.0,32,0.00,,,0.00,WUHU216DAVISVP2,2013-07-02 20:17:00,
2013-07-02 15:22:00,86.7,53.2,30.03,North,351,0.0,6.0,32,0.00,,,0.00,WUHU216DAVISVP2,2013-07-02 20:22:00,
2013-07-02 15:27:00,87.0,53.5,30.03,North,360,0.0,6.0,32,0.00,,,0.00,WUHU216DAVISVP2,2013-07-02 20:27:00,
2013-07-02 15:32:00,87.6,55.7,30.03,North,360,0.0,6.0,34,0.00,,,0.00,WUHU216DAVISVP2,2013-07-02 20:32:00,
2013-07-02 15:37:00,87.4,54.7,30.03,North,360,1.0,5.0,33,0.00,,,0.00,WUHU216DAVISVP2,2013-07-02 20:37:00,
2013-07-02 15:42:00,86.1,54.3,30.03,North,5,0.0,6.0,34,0.00,,,0.00,WUHU216DAVISVP2,2013-07-02 20:42:00,
2013-07-02 15:47:00,85.3,55.2,30.03,North,5,0.0,6.0,36,0.00,,,0.00,WUHU216DAVISVP2,2013-07-02 20:47:00,
2013-07-02 15:52:00,85.1,53.5,30.03,North,360,0.0,3.0,34,0.00,,,0.00,WUHU216DAVISVP2,2013-07-02 20:52:00,
2013-07-02 15:57:00,84.9,53.3,30.02,North,360,4.0,4.0,34,0.00,,,0.00,WUHU216DAVISVP2,2013-07-02 20:57:00,
2013-07-02 16:02:00,85.1,55.0,30.02,North,5,0.0,4.0,36,0.00,,,0.00,WUHU216DAVISVP2,2013-07-02 21:02:00,
2013-07-02 16:07:00,85.8,54.1,30.02,North,9,0.0,7.0,34,0.00,,,0.00,WUHU216DAVISVP2,2013-07-02 21:07:00,
2013-07-02 16:12:00,86.1,55.1,30.02,NNE,22,0.0,10.0,35,0.00,,,0.00,WUHU216DAVISVP2,2013-07-02 21:12:00,
2013-07-02 16:17:00,86.5,54.7,30.02,NNE,22,0.0,10.0,34,0.00,,,0.00,WUHU216DAVISVP2,2013-07-02 21:17:00,
2013-07-02 16:22:00,86.2,54.4,30.01,NNE,22,0.0,3.0,34,0.00,,,0.00,WUHU216DAVISVP2,2013-07-02 21:22:00,
2013-07-02 16:27:00,85.9,53.3,30.02,NNE,22,0.0,3.0,33,0.00,,,0.00,WUHU216DAVISVP2,2013-07-02 21:27:00,
2013-07-02 16:32:00,86.2,52.8,30.01,NNE,22,0.0,2.0,32,0.00,,,0.00,WUHU216DAVISVP2,2013-07-02 21:32:00,
2013-07-02 16:37:00,86.3,53.7,30.01,NNE,22,0.0,1.0,33,0.00,,,0.00,WUHU216DAVISVP2,2013-07-02 21:37:00,
2013-07-02 16:42:00,85.7,54.8,30.01,NNE,22,0.0,4.0,35,0.00,,,0.00,WUHU216DAVISVP2,2013-07-02 21:42:00,
2013-07-02 16:47:00,85.2,53.5,30.01,NNE,22,0.0,4.0,34,0.00,,,0.00,WUHU216DAVISVP2,2013-07-02 21:47:00,
2013-07-02 16:52:00,84.9,53.3,30.01,NNE,22,0.0,1.0,34,0.00,,,0.00,WUHU216DAVISVP2,2013-07-02 21:52:00,
2013-07-02 16:57:00,84.8,55.5,30.01,NNE,22,0.0,1.0,37,0.00,,,0.00,WUHU216DAVISVP2,2013-07-02 21:57:00,
2013-07-02 17:02:00,85.0,55.0,30.01,NNE,22,0.0,1.0,36,0.00,,,0.00,WUHU216DAVISVP2,2013-07-02 22:02:00,
2013-07-02 17:07:00,84.6,54.6,30.01,NNE,22,0.0,1.0,36,0.00,,,0.00,WUHU216DAVISVP2,2013-07-02 22:07:00,
2013-07-02 17:12:00,84.7,53.9,30.01,NNE,22,0.0,1.0,35,0.00,,,0.00,WUHU216DAVISVP2,2013-07-02 22:12:00,
2013-07-02 17:17:00,85.5,53.0,30.00,NNE,18,0.0,4.0,33,0.00,,,0.00,WUHU216DAVISVP2,2013-07-02 22:17:00,
2013-07-02 17:22:00,86.4,55.4,30.00,NNE,18,0.0,4.0,35,0.00,,,0.00,WUHU216DAVISVP2,2013-07-02 22:22:00,
2013-07-02 17:27:00,86.8,54.1,30.00,NNE,18,0.0,5.0,33,0.00,,,0.00,WUHU216DAVISVP2,2013-07-02 22:27:00,
2013-07-02 17:32:00,87.1,55.2,30.00,NNE,18,0.0,5.0,34,0.00,,,0.00,WUHU216DAVISVP2,2013-07-02 22:32:00,
2013-07-02 17:37:00,87.5,53.9,30.00,NNE,18,0.0,2.0,32,0.00,,,0.00,WUHU216DAVISVP2,2013-07-02 22:37:00,
2013-07-02 17:42:00,87.8,53.3,30.00,NNE,18,0.0,1.0,31,0.00,,,0.00,WUHU216DAVISVP2,2013-07-02 22:42:00,
2013-07-02 17:47:00,87.2,52.8,30.00,NNE,18,0.0,5.0,31,0.00,,,0.00,WUHU216DAVISVP2,2013-07-02 22:47:00,
2013-07-02 17:52:00,87.1,53.5,30.00,NW,325,1.0,5.0,32,0.00,,,0.00,WUHU216DAVISVP2,2013-07-02 22:52:00,
2013-07-02 17:57:00,88.1,52.7,29.99,NW,325,0.0,4.0,30,0.00,,,0.00,WUHU216DAVISVP2,2013-07-02 22:57:00,
2013-07-02 18:02:00,88.2,54.5,29.99,NW,325,0.0,3.0,32,0.00,,,0.00,WUHU216DAVISVP2,2013-07-02 23:02:00,
2013-07-02 18:07:00,88.2,55.4,29.99,NW,325,0.0,1.0,33,0.00,,,0.00,WUHU216DAVISVP2,2013-07-02 23:07:00,
2013-07-02 18:12:00,87.7,54.9,29.99,NNW,340,0.0,5.0,33,0.00,,,0.00,WUHU216DAVISVP2,2013-07-02 23:12:00,
2013-07-02 18:17:00,87.4,54.7,29.99,NNW,340,0.0,5.0,33,0.00,,,0.00,WUHU216DAVISVP2,2013-07-02 23:17:00,
2013-07-02 18:22:00,87.1,53.5,29.99,NNW,348,0.0,5.0,32,0.00,,,0.00,WUHU216DAVISVP2,2013-07-02 23:22:00,
2013-07-02 18:27:00,86.6,54.0,29.99,NNW,348,0.0,5.0,33,0.00,,,0.00,WUHU216DAVISVP2,2013-07-02 23:27:00,
2013-07-02 18:29:00,86.6,54.8,29.99,NNW,348,0.0,5.0,34,0.00,,,0.00,WUHU216DAVISVP2,2013-07-02 23:29:00,
2013-07-02 18:34:00,86.3,52.8,29.99,NNW,348,0.0,2.0,32,0.00,,,0.00,WUHU216DAVISVP2,2013-07-02 23:34:00,
2013-07-02 18:39:00,86.2,53.6,29.99,NNW,348,0.0,4.0,33,0.00,,,0.00,WUHU216DAVISVP2,2013-07-02 23:39:00,
2013-07-02 18:44:00,86.1,53.5,29.99,NNW,348,0.0,4.0,33,0.00,,,0.00,WUHU216DAVISVP2,2013-07-02 23:44:00,
2013-07-02 18:49:00,86.0,53.4,29.99,NNW,348,0.0,4.0,33,0.00,,,0.00,WUHU216DAVISVP2,2013-07-02 23:49:00,
2013-07-02 18:54:00,86.1,54.3,29.99,NNW,348,0.0,4.0,34,0.00,,,0.00,WUHU216DAVISVP2,2013-07-02 23:54:00,
2013-07-02 18:59:00,86.1,54.3,29.99,NNW,348,0.0,1.0,34,0.00,,,0.00,WUHU216DAVISVP2,2013-07-02 23:59:00,
2013-07-02 19:01:00,86.1,52.7,29.99,NNW,348,0.0,0.0,32,0.00,,,0.00,WUHU216DAVISVP2,2013-07-03 00:01:00,
2013-07-02 19:06:00,86.4,54.6,29.99,NNW,348,0.0,0.0,34,0.00,,,0.00,WUHU216DAVISVP2,2013-07-03 00:06:00,
2013-07-02 19:11:00,86.5,54.7,29.99,North,349,1.0,5.0,34,0.00,,,0.00,WUHU216DAVISVP2,2013-07-03 00:11:00,
2013-07-02 19:16:00,86.2,53.6,29.99,North,349,0.0,5.0,33,0.00,,,0.00,WUHU216DAVISVP2,2013-07-03 00:16:00,
2013-07-02 19:21:00,86.0,54.2,29.98,North,350,0.0,3.0,34,0.00,,,0.00,WUHU216DAVISVP2,2013-07-03 00:21:00,
2013-07-02 19:24:00,86.0,54.2,29.98,North,350,0.0,3.0,34,0.00,,,0.00,WUHU216DAVISVP2,2013-07-03 00:24:00,
2013-07-02 19:28:00,86.1,55.1,29.98,North,349,0.0,0.0,35,0.00,,,0.00,WUHU216DAVISVP2,2013-07-03 00:28:00,
2013-07-02 19:33:00,86.3,54.5,29.98,North,349,0.0,0.0,34,0.00,,,0.00,WUHU216DAVISVP2,2013-07-03 00:33:00,
2013-07-02 19:38:00,86.0,54.2,29.98,North,349,0.0,2.0,34,0.00,,,0.00,WUHU216DAVISVP2,2013-07-03 00:38:00,
2013-07-02 19:43:00,85.8,54.1,29.98,North,350,0.0,2.0,34,0.00,,,0.00,WUHU216DAVISVP2,2013-07-03 00:43:00,
2013-07-02 19:48:00,86.1,54.3,29.98,North,350,0.0,1.0,34,0.00,,,0.00,WUHU216DAVISVP2,2013-07-03 00:48:00,
2013-07-02 19:53:00,86.2,56.0,29.98,North,349,0.0,0.0,36,0.00,,,0.00,WUHU216DAVISVP2,2013-07-03 00:53:00,
2013-07-02 19:58:00,85.8,54.9,29.98,North,350,0.0,0.0,35,0.00,,,0.00,WUHU216DAVISVP2,2013-07-03 00:58:00,
2013-07-02 20:00:00,85.5,53.8,29.98,North,350,0.0,0.0,34,0.00,,,0.00,WUHU216DAVISVP2,2013-07-03 01:00:00,
2013-07-02 20:03:00,85.3,54.4,29.98,North,349,0.0,0.0,35,0.00,,,0.00,WUHU216DAVISVP2,2013-07-03 01:03:00,
2013-07-02 20:08:00,84.8,54.0,29.98,North,349,0.0,0.0,35,0.00,,,0.00,WUHU216DAVISVP2,2013-07-03 01:08:00,
2013-07-02 20:09:00,84.7,54.7,29.98,North,350,0.0,0.0,36,0.00,,,0.00,WUHU216DAVISVP2,2013-07-03 01:09:00,
2013-07-02 20:14:00,84.2,54.2,29.98,North,350,0.0,0.0,36,0.00,,,0.00,WUHU216DAVISVP2,2013-07-03 01:14:00,
2013-07-02 20:19:00,84.0,54.1,29.98,North,350,0.0,0.0,36,0.00,,,0.00,WUHU216DAVISVP2,2013-07-03 01:19:00,
2013-07-02 20:24:00,83.8,55.4,29.98,North,349,0.0,0.0,38,0.00,,,0.00,WUHU216DAVISVP2,2013-07-03 01:24:00,
2013-07-02 20:26:00,83.6,53.7,29.98,North,349,0.0,0.0,36,0.00,,,0.00,WUHU216DAVISVP2,2013-07-03 01:26:00,
2013-07-02 20:31:00,83.5,54.4,29.98,North,350,0.0,0.0,37,0.00,,,0.00,WUHU216DAVISVP2,2013-07-03 01:31:00,
2013-07-02 20:36:00,83.4,55.0,29.98,North,350,0.0,0.0,38,0.00,,,0.00,WUHU216DAVISVP2,2013-07-03 01:36:00,
2013-07-02 20:41:00,83.1,54.8,29.98,North,350,0.0,0.0,38,0.00,,,0.00,WUHU216DAVISVP2,2013-07-03 01:41:00,
2013-07-02 20:46:00,82.9,55.3,29.98,North,350,0.0,0.0,39,0.00,,,0.00,WUHU216DAVISVP2,2013-07-03 01:46:00,
2013-07-02 20:49:00,82.7,55.9,29.98,North,349,0.0,0.0,40,0.00,,,0.00,WUHU216DAVISVP2,2013-07-03 01:49:00,
2013-07-02 20:50:00,82.7,55.9,29.98,North,350,0.0,0.0,40,0.00,,,0.00,WUHU216DAVISVP2,2013-07-03 01:50:00,
2013-07-02 20:55:00,82.2,56.1,29.98,North,349,0.0,0.0,41,0.00,,,0.00,WUHU216DAVISVP2,2013-07-03 01:55:00,
2013-07-02 21:00:00,81.9,55.8,29.98,North,349,0.0,0.0,41,0.00,,,0.00,WUHU216DAVISVP2,2013-07-03 02:00:00,
2013-07-02 21:05:00,81.5,56.2,29.98,North,349,0.0,0.0,42,0.00,,,0.00,WUHU216DAVISVP2,2013-07-03 02:05:00,
2013-07-02 21:10:00,81.2,55.9,29.98,North,349,0.0,0.0,42,0.00,,,0.00,WUHU216DAVISVP2,2013-07-03 02:10:00,
2013-07-02 21:15:00,80.9,55.6,29.98,North,350,0.0,0.0,42,0.00,,,0.00,WUHU216DAVISVP2,2013-07-03 02:15:00,
2013-07-02 21:21:00,80.6,55.4,29.98,North,350,0.0,0.0,42,0.00,,,0.00,WUHU216DAVISVP2,2013-07-03 02:21:00,
2013-07-02 21:26:00,80.3,55.7,29.98,North,349,0.0,0.0,43,0.00,,,0.00,WUHU216DAVISVP2,2013-07-03 02:26:00,
2013-07-02 21:31:00,80.0,56.1,29.98,North,350,0.0,0.0,44,0.00,,,0.00,WUHU216DAVISVP2,2013-07-03 02:31:00,
2013-07-02 21:33:00,79.8,55.9,29.98,North,350,0.0,0.0,44,0.00,,,0.00,WUHU216DAVISVP2,2013-07-03 02:33:00,
2013-07-02 21:39:00,79.4,56.2,29.98,North,350,0.0,0.0,45,0.00,,,0.00,WUHU216DAVISVP2,2013-07-03 02:39:00,
2013-07-02 21:44:00,79.1,55.9,29.98,North,350,0.0,0.0,45,0.00,,,0.00,WUHU216DAVISVP2,2013-07-03 02:44:00,
2013-07-02 21:46:00,78.9,55.8,29.98,North,350,0.0,0.0,45,0.00,,,0.00,WUHU216DAVISVP2,2013-07-03 02:46:00,
2013-07-02 21:51:00,78.6,56.1,29.98,North,350,0.0,0.0,46,0.00,,,0.00,WUHU216DAVISVP2,2013-07-03 02:51:00,
2013-07-02 21:56:00,78.3,56.5,29.98,North,350,0.0,0.0,47,0.00,,,0.00,WUHU216DAVISVP2,2013-07-03 02:56:00,
2013-07-02 22:01:00,78.1,56.9,29.98,North,350,0.0,0.0,48,0.00,,,0.00,WUHU216DAVISVP2,2013-07-03 03:01:00,
2013-07-02 22:02:00,78.0,56.8,29.98,North,350,0.0,0.0,48,0.00,,,0.00,WUHU216DAVISVP2,2013-07-03 03:02:00,
2013-07-02 22:07:00,77.7,56.5,29.98,North,349,0.0,0.0,48,0.00,,,0.00,WUHU216DAVISVP2,2013-07-03 03:07:00,
2013-07-02 22:12:00,77.4,56.8,29.98,North,350,0.0,0.0,49,0.00,,,0.00,WUHU216DAVISVP2,2013-07-03 03:12:00,
2013-07-02 22:17:00,77.2,56.6,29.98,North,350,0.0,0.0,49,0.00,,,0.00,WUHU216DAVISVP2,2013-07-03 03:17:00,
2013-07-02 22:20:00,77.0,57.0,29.98,North,350,0.0,0.0,50,0.00,,,0.00,WUHU216DAVISVP2,2013-07-03 03:20:00,
2013-07-02 22:25:00,76.8,57.4,29.98,North,349,0.0,0.0,51,0.00,,,0.00,WUHU216DAVISVP2,2013-07-03 03:25:00,
2013-07-02 22:30:00,76.6,57.2,29.98,North,350,0.0,0.0,51,0.00,,,0.00,WUHU216DAVISVP2,2013-07-03 03:30:00,
2013-07-02 22:35:00,76.4,57.0,29.98,North,349,0.0,0.0,51,0.00,,,0.00,WUHU216DAVISVP2,2013-07-03 03:35:00,
2013-07-02 22:39:00,76.2,57.4,29.98,North,350,0.0,0.0,52,0.00,,,0.00,WUHU216DAVISVP2,2013-07-03 03:39:00,
2013-07-02 22:44:00,76.0,57.2,29.98,North,349,0.0,0.0,52,0.00,,,0.00,WUHU216DAVISVP2,2013-07-03 03:44:00,
2013-07-02 22:49:00,75.8,57.0,29.98,North,350,0.0,0.0,52,0.00,,,0.00,WUHU216DAVISVP2,2013-07-03 03:49:00,
2013-07-02 22:54:00,75.6,56.9,29.98,North,350,0.0,0.0,52,0.00,,,0.00,WUHU216DAVISVP2,2013-07-03 03:54:00,
2013-07-02 22:59:00,75.4,57.2,29.98,North,350,0.0,0.0,53,0.00,,,0.00,WUHU216DAVISVP2,2013-07-03 03:59:00,
2013-07-02 23:00:00,75.3,57.1,29.98,North,349,0.0,0.0,53,0.00,,,0.00,WUHU216DAVISVP2,2013-07-03 04:00:00,
2013-07-02 23:01:00,75.3,57.1,29.98,North,350,0.0,0.0,53,0.00,,,0.00,WUHU216DAVISVP2,2013-07-03 04:01:00,
2013-07-02 23:03:00,75.2,57.0,29.98,North,350,0.0,0.0,53,0.00,,,0.00,WUHU216DAVISVP2,2013-07-03 04:03:00,
2013-07-02 23:04:00,75.2,57.0,29.98,North,350,0.0,0.0,53,0.00,,,0.00,WUHU216DAVISVP2,2013-07-03 04:04:00,
2013-07-02 23:09:00,75.0,57.4,29.98,North,350,0.0,0.0,54,0.00,,,0.00,WUHU216DAVISVP2,2013-07-03 04:09:00,
2013-07-02 23:14:00,74.8,56.7,29.98,North,350,0.0,0.0,53,0.00,,,0.00,WUHU216DAVISVP2,2013-07-03 04:14:00,
2013-07-02 23:19:00,74.7,56.6,29.98,North,350,0.0,0.0,53,0.00,,,0.00,WUHU216DAVISVP2,2013-07-03 04:19:00,
2013-07-02 23:24:00,74.7,56.6,29.98,North,349,0.0,0.0,53,0.00,,,0.00,WUHU216DAVISVP2,2013-07-03 04:24:00,
2013-07-02 23:29:00,74.6,57.0,29.98,North,350,0.0,0.0,54,0.00,,,0.00,WUHU216DAVISVP2,2013-07-03 04:29:00,
2013-07-02 23:31:00,74.6,57.0,29.98,North,350,0.0,1.0,54,0.00,,,0.00,WUHU216DAVISVP2,2013-07-03 04:31:00,
2013-07-02 23:32:00,74.6,57.0,29.98,North,350,0.0,1.0,54,0.00,,,0.00,WUHU216DAVISVP2,2013-07-03 04:32:00,
2013-07-02 23:37:00,74.8,57.7,29.98,North,350,0.0,3.0,55,0.00,,,0.00,WUHU216DAVISVP2,2013-07-03 04:37:00,
2013-07-02 23:42:00,75.0,57.9,29.98,North,350,0.0,3.0,55,0.00,,,0.00,WUHU216DAVISVP2,2013-07-03 04:42:00,
2013-07-02 23:45:00,75.0,57.9,29.98,North,349,0.0,0.0,55,0.00,,,0.00,WUHU216DAVISVP2,2013-07-03 04:45:00,
2013-07-02 23:46:00,75.0,57.9,29.98,North,349,0.0,0.0,55,0.00,,,0.00,WUHU216DAVISVP2,2013-07-03 04:46:00,
2013-07-02 23:51:00,74.8,57.7,29.98,North,349,0.0,0.0,55,0.00,,,0.00,WUHU216DAVISVP2,2013-07-03 04:51:00,
2013-07-02 23:54:00,74.7,58.1,29.98,North,350,0.0,0.0,56,0.00,,,0.00,WUHU216DAVISVP2,2013-07-03 04:54:00,
2013-07-02 23:59:00,74.4,57.8,29.98,North,350,0.0,0.0,56,0.00,,,0.00,WUHU216DAVISVP2,2013-07-03 04:59:00,